Regional Weather Roundup
Issued by NWS

Home | Current Version | Previous Version | Text Only | Print | Product List | Glossary On
Versions: 1 2 3 4 5 6 7 8 9 10 11 12 13 14 15 16 17 18 19 20 21 22 23 24 25 26 27 28 29 30 31 32 33 34 35 36 37 38 39 40 41 42 43 44 45 46 47 48 49 50
000
ASHW40 PHFO 241010
RWRHI

WEATHER ROUNDUP FOR HAWAII
NATIONAL WEATHER SERVICE HONOLULU HI
1200 AM HST SUN MAY 24 2015

THIS IS AN AUTOMATED REPORT THAT HAS NOT BEEN QUALITY CONTROLLED.

NOTE..."FAIR" INDICATES FEW OR NO CLOUDS BELOW 12,000 FEET WITH NO
SIGNIFICANT WEATHER AND/OR OBSTRUCTIONS TO VISIBILITY.

* - THESE SITES REPORT LIMITED FIELDS

HIZ001>004-241100-
KAUAI-NIIHAU-

CITY           SKY/WX    TMP DP  RH WIND       PRES   REMARKS
LIHUE APT      MOCLDY    69  57  65 N10       30.13S
PORT ALLEN*    NOT AVBL
POIPU*           N/A     72 N/A N/A N5G10       N/A
PRINCEVILLE*     N/A     70 N/A N/A MISG        N/A
KOKOLE POINT*  NOT AVBL
MOLOAA DAIRY*  NOT AVBL
WAIMEA HTS*    NOT AVBL
PUU OPAE*      NOT AVBL
PUU LUA*       NOT AVBL
MAKAHA RIDGE*  NOT AVBL
$$

HIZ005>011-241100-
OAHU-

CITY           SKY/WX    TMP DP  RH WIND       PRES   REMARKS
HONOLULU       PTCLDY    73  60  63 N7        30.09F
KALAELOA       MOCLDY    69  59  70 VRB3      30.10F
KANEOHE MCB    CLOUDY    72  60  66 NE12      30.08S
WHEELER FIELD  FAIR      66  58  77 NW3       30.09F
BELLOWS*       NOT AVBL
KAHUKU*        NOT AVBL
WHEELER*       NOT AVBL
WAIANAE HARBOR NOT AVBL
DILLINGHAM*      N/A     70  59  68 MISG        N/A
KAHUKU TRN*      N/A     70  57  64 NE6G13      N/A
KAWAILOA*        N/A     64  57  77 NE8G16      N/A
KII*             N/A    N/A N/A N/A NE14        N/A
MAKUA RANGE*     N/A     72  59  64 E6G16       N/A
OAHU FOREST NW NOT AVBL
SCHOFIELD BRK*   N/A     63  57  82 MISG        N/A
SCHOFIELD S*   NOT AVBL
WAIANAE VLY*   NOT AVBL
KUAOKALA*      NOT AVBL
HONOULIUULI*   NOT AVBL
MOKUOLOE IS*   NOT AVBL
PALEHUA*       NOT AVBL
WAIAWA PHB*    NOT AVBL
$$

HIZ012>013-241100-
MOLOKAI-

CITY           SKY/WX    TMP DP  RH WIND       PRES   REMARKS
MOLOKAI AIRPT  CLEAR     70  59  68 N9        30.10F
KALAUPAPA      NOT AVBL
MAKAPULAPAI*   NOT AVBL
MOLOKAI 1*     NOT AVBL
PUU ALII*      NOT AVBL
$$

HIZ016-241100-
KAHOOLAWE-

CITY           SKY/WX    TMP DP  RH WIND       PRES   REMARKS
KAHOOLAWE*     NOT AVBL
HAKIOAWA*      NOT AVBL
HONOKANAIA*      N/A     73  62  68 N14G25    30.08F
KANELOA*         N/A    N/A N/A N/A N18G29    30.13S
KEALIALALO*    NOT AVBL
LUA MAKIKA*    NOT AVBL
$$

HIZ014>015-241100-
LANAI-

CITY           SKY/WX    TMP DP  RH WIND       PRES   REMARKS
LANAI CITY     FAIR      65  59  81 NE18      30.11F
LANAI 1*       NOT AVBL
$$

HIZ017>028-241100-
MAUI-

CITY           SKY/WX    TMP DP  RH WIND       PRES   REMARKS
KAHULUI        CLEAR     71  61  70 NE10      30.09F
KAPALUA-W MAUI NOT AVBL
HANA AIRPORT   CLOUDY    68  64  88 W5        30.12S
HANA*          NOT AVBL
HALEAKALA SUMM   N/A     43  -2  15 NW22        N/A
MAALAEA BAY*   NOT AVBL
HALEAKALA*     NOT AVBL
KAUPO GAP*     NOT AVBL
KULA 1*          N/A     50  -2  11 E3          N/A
$$

HIZ023>026-241100-
BIG ISLAND OF HAWAII COAST AND LOWER SLOPES-

CITY           SKY/WX    TMP DP  RH WIND       PRES   REMARKS
KAILUA KONA    CLEAR     75  64  68 CALM      30.04F
HILO           CLOUDY    70  65  84 N9        30.09S
HONOKAA*       NOT AVBL
KAWAIHAE MWT*  NOT AVBL
KAWAIHAE*        N/A     75 N/A N/A VRB3        N/A
SOUTH POINT*   NOT AVBL
UPOLU AIRPORT* NOT AVBL
KAMUELA*       PTSUNNY   59  59 100 NE13      30.16S
HAKALAU*         N/A     45  45 100 W3          N/A
KALOKO-HONOKO* NOT AVBL
PALI 2*          N/A     63  59  88 N8G16       N/A
KEALAKOMO*       N/A     90  75  62 N21G31      N/A  HX 100
KAUPULEHU*     NOT AVBL
KAPAPALA*        N/A     64  63  97 N1          N/A
LOWER KAHUKU*  NOT AVBL
PUHE CS*       NOT AVBL
PUHO CS*       NOT AVBL
PTA KEAMUKU*     N/A     57  54  88 CALM        N/A
WAIKOLOA*      NOT AVBL
$$

HIZ027>028-241100-
BIG ISLAND OF HAWAII INTERIOR AND SUMMMITS-

CITY           SKY/WX    TMP DP  RH WIND       PRES   REMARKS
BRADSHAW FIELD PTCLDY    47  46  96 N3        30.34F FOG
MK VISITOR CEN NOT AVBL
MAUNA KEA*       N/A     37   9  30 NW16        N/A  WCI  28
MAUNA LOA*       N/A     43  -4  14 MISG        N/A
MAUNA LOA 1*   NOT AVBL
PTA KIPUKA*      N/A     55  54  94 NW1         N/A
PTA RANGE 17*    N/A     54  52  94 NE3         N/A
PTA WEST*        N/A     70  68  94 NE1         N/A
NENE CABIN*    NOT AVBL
AHUMOA*        NOT AVBL
PTA PORTABLE*  NOT AVBL
PUU MALI*        N/A     46  45  93 S3          N/A
$$

HIC003-241100-
NORTHWEST ISLANDS-

CITY           SKY/WX    TMP DP  RH WIND       PRES   REMARKS
MIDWAY ISLAND  CLEAR    N/A N/A N/A E8        30.32R
MIDWAY NOS*    NOT AVBL
FRENCH FRIGATE NOT AVBL
$$

PHZ110>124-180-241100-
BUOY REPORTS

STATION/POSITION TIME  TEMP    WIND        PRES    WAVE   SWELL
                       AIR SEA DIR/SP/G            HT/PER HT/DIR
                 (UTC) (F)     (DEG/KT/KT) (MB)    (FT/S) (FT/D)
BUOY 51001       NOT AVBL
BUOY 51101       1000   72 76   40/ 16/ 19 1021.6R   7/10   5/340
BUOY 51100       NOT AVBL
BUOY 51002       1000   78 79   70/  6/  8 1017.2F   6/16   5/180
BUOY 51003       0900   77 79   50/ 19/ 23 1018.4R   7/ 8   5
BUOY 51004       0923   77 79   80/  4/  6 1017.1F   4/14   5/200
BARBERS PT BUOY  NOT AVBL
WAIMEA BAY BUOY  1000      77                N/A     8/10   3/ 10
KAILUA BAY BUOY  1000      77                N/A     6/11   2
LANAI BUOY       NOT AVBL
BARBERS PT 2     1000      77                N/A     4/17   3/200
PAUWELA MAUI     1000      77                N/A     6/11   3/340
HILO             1000      77                N/A     6/ 9   2/360
KANEOHE BAY BUOY 1000      77                N/A     7/11   3/360
HANALEI KAUAI    1000      78                N/A     7/ 9   3/340
KAHULUI HARBOR   1000   74 78   20/ 10/ 13 1018.7F
HONOLULU HARBOR  1000   73 77   50/  3/ 11 1018.8F
KILO NALU        NOT AVBL
HILO HARBOR      1000   70 76  350/ 17/ 19 1018.4F
MOKUOLOE         1000   73 78   50/ 10/ 13 1019.3S
NAWILIWILI       1000   71 79  320/  6/  9 1019.8F
WHOTS BUOY       NOT AVBL
BUOY 51028       NOT AVBL
$$

......................KEY........................................
  SKY/WX - SKY CONDITIONS/PRESENT WEATHER
  TMP    - TEMPERATURE IN FAHRENHEIT
  DWPT   - DEWPOINT IN FAHRENHEIT
  RH     - RELATIVE HUMIDITY IN PERCENT
  WIND   - DIRECTION AND SPEED /MPH FOR ISLANDS...KTS FOR BUOYS/
  PRES   - MEAN SEA LEVEL PRESSURE IN INCHES OF HG
  VSB    - VISIBILITY IN MILES
  HX     - HEAT INDEX
  WCI    - WIND CHILL INDEX
  VRB    - VARIABLE WIND DIRECTION
  N/A    - NOT AVAILABLE



USA.gov is the U.S. government's official web portal to all federal, state and local government web resources and services.